Regional Weather Roundup
Issued by NWS

Home | Current Version | Previous Version | Graphics & Text | Print | Product List | Glossary On
Versions: 1 2 3 4 5 6 7 8 9 10 11 12 13 14 15 16 17 18 19 20 21 22 23 24 25 26 27 28 29 30 31 32 33 34 35 36 37 38 39 40 41 42 43 44 45 46 47 48 49 50
000
ASUS43 KOAX 062202
RWRNE

WEATHER ROUNDUP FOR NEBRASKA
NATIONAL WEATHER SERVICE OMAHA NE
400 PM CST SAT FEB 06 2016

NOTES: SATELLITE DATA IS BEING USED TO AUGMENT CLOUD COVER ABOVE
       12000 FEET.
       "FAIR" INDICATES FEW OR NO CLOUDS BELOW 12,000 FEET WITH NO
       SIGNIFICANT WEATHER AND/OR OBSTRUCTIONS TO VISIBILITY.

  * THESE STATIONS DO NOT REPORT WEATHER SUCH AS RAIN...SNOW OR FOG.

NEZ001>004-019>022-054>056-062300-
NEBRASKA PANHANDLE

CITY           SKY/WX    TMP DP  RH WIND       PRES   REMARKS
SCOTTSBLUFF    CLOUDY    43  25  49 W15G28    30.01F
ALLIANCE       CLOUDY    37  28  70 SW14      29.94F WCI  28
CHADRON        CLOUDY    48  29  47 W9        29.92F
SIDNEY         CLOUDY    41  28  60 W14       30.03F
$$

NEZ057>060-069>072-079>082-062300-
SOUTHWEST NEBRASKA

CITY           SKY/WX    TMP DP  RH WIND       PRES   REMARKS
NORTH PLATTE   CLOUDY    38  25  59 W10       30.03F WCI  31
IMPERIAL       CLOUDY    37  24  59 W9        30.07F WCI  30
MCCOOK         CLOUDY    37  25  61 SW8       30.09F WCI  31
$$

NEZ005>010-023>029-035>040-094-062300-
NORTH CENTRAL NEBRASKA

CITY           SKY/WX    TMP DP  RH WIND       PRES   REMARKS
VALENTINE      CLOUDY    45  27  49 W20       29.91S
BROKEN BOW     MOSUNNY   38  27  64 SW14      29.97F WCI  30
ORD            CLOUDY    39  27  62 SW16      29.97F WCI  30
$$

NEZ041-046>049-061>064-073>077-083>087-062300-
SOUTH CENTRAL NEBRASKA

CITY           SKY/WX    TMP DP  RH WIND       PRES   REMARKS
GRAND ISLAND   CLOUDY    34  24  67 SW20      30.05F WCI  23
HASTINGS       CLOUDY    34  22  61 SW13      30.07F WCI  25
$$

NEZ011>018-030>034-042>045-062300-
NORTHEAST NEBRASKA

CITY           SKY/WX    TMP DP  RH WIND       PRES   REMARKS
NORFOLK        CLOUDY    36  27  69 SW14      29.96F WCI  27
COLUMBUS *     CLOUDY    36  21  55 SW12G18   30.04F WCI  27
TEKAMAH        CLOUDY    35  28  75 S17       30.04F WCI  25
$$

NEZ050>053-065>068-078-088>093-062300-
SOUTHEAST NEBRASKA

CITY           SKY/WX    TMP DP  RH WIND       PRES   REMARKS
LINCOLN        CLOUDY    38  25  59 SW16      30.11F WCI  29
OMAHA EPPLEY   CLOUDY    41  27  57 S14       30.08F
FALLS CITY     SUNNY     48  28  46 SW16      30.15F
$$

NEZ044-045-051>053-067-062300-
OMAHA AREA

CITY           SKY/WX    TMP DP  RH WIND       PRES   REMARKS
OMAHA EPPLEY   CLOUDY    41  27  57 S14       30.08F
OFFUTT AFB     CLOUDY    40  29  64 S8        30.09F WCI  34
$$



USA.gov is the U.S. government's official web portal to all federal, state and local government web resources and services.